| time (UTC) | temp F | wind direction | speed MPH | gust MPH | rain 1hr in | rain 24hr in | rain mn in | humidity % | barometer mb |
| 20260504192433 | 80 | 318 | 5.0 | 7.0 | 0.00 | 0.00 | 0.00 | 40 | 1011.9 |
| 20260504191932 | 81 | 269 | 9.0 | 11.0 | 0.00 | 0.00 | 0.00 | 39 | 1012.1 |
| 20260504191429 | 81 | 225 | 2.0 | 3.0 | 0.00 | 0.00 | 0.00 | 40 | 1012.1 |
| 20260504190924 | 81 | 245 | 3.0 | 4.0 | 0.00 | 0.00 | 0.00 | 41 | 1012.0 |
| 20260504190420 | 80 | 228 | 1.0 | 1.0 | 0.00 | 0.00 | 0.00 | 44 | 1012.2 |
| 20260504185917 | 79 | 334 | 5.0 | 8.0 | 0.00 | 0.00 | 0.00 | 44 | 1012.3 |
| 20260504185414 | 79 | 312 | 5.0 | 7.0 | 0.00 | 0.00 | 0.00 | 45 | 1012.2 |
| 20260504184910 | 80 | 209 | 2.0 | 3.0 | 0.00 | 0.00 | 0.00 | 45 | 1012.3 |
| 20260504184406 | 80 | 280 | 2.0 | 4.0 | 0.00 | 0.00 | 0.00 | 44 | 1012.3 |
| 20260504183902 | 80 | 306 | 2.0 | 3.0 | 0.00 | 0.00 | 0.00 | 43 | 1012.2 |
| 20260504183400 | 79 | 239 | 3.0 | 3.0 | 0.00 | 0.00 | 0.00 | 45 | 1012.2 |
| 20260504182857 | 80 | 214 | 2.0 | 3.0 | 0.00 | 0.00 | 0.00 | 43 | 1012.4 |
| 20260504182354 | 80 | 225 | 3.0 | 3.0 | 0.00 | 0.00 | 0.00 | 43 | 1012.4 |
| 20260504181851 | 78 | 298 | 2.0 | 3.0 | 0.00 | 0.00 | 0.00 | 45 | 1012.2 |
| 20260504181348 | 79 | 271 | 6.0 | 8.0 | 0.00 | 0.00 | 0.00 | 44 | 1012.4 |
| 20260504180847 | 79 | 134 | 2.0 | 3.0 | 0.00 | 0.00 | 0.00 | 45 | 1012.7 |
| 20260504180345 | 79 | 204 | 3.0 | 4.0 | 0.00 | 0.00 | 0.00 | 42 | 1012.9 |
| 20260504175843 | 79 | 211 | 2.0 | 3.0 | 0.00 | 0.00 | 0.00 | 43 | 1012.8 |
| 20260504175339 | 80 | 334 | 1.0 | 2.0 | 0.00 | 0.00 | 0.00 | 44 | 1012.9 |
| 20260504174838 | 79 | 309 | 2.0 | 2.0 | 0.00 | 0.00 | 0.00 | 48 | 1012.9 |
| 20260504174335 | 77 | 228 | 2.0 | 2.0 | 0.00 | 0.00 | 0.00 | 48 | 1012.9 |
| 20260504173832 | 78 | 288 | 2.0 | 6.0 | 0.00 | 0.00 | 0.00 | 47 | 1013.0 |
| 20260504173328 | 78 | 227 | 2.0 | 2.0 | 0.00 | 0.00 | 0.00 | 48 | 1013.1 |
| 20260504172826 | 78 | 261 | 2.0 | 3.0 | 0.00 | 0.00 | 0.00 | 48 | 1013.0 |
| 20260504172322 | 77 | 296 | 3.0 | 6.0 | 0.00 | 0.00 | 0.00 | 46 | 1013.1 |
| 20260504171818 | 77 | 236 | 3.0 | 4.0 | 0.00 | 0.00 | 0.00 | 47 | 1013.4 |
| 20260504171315 | 77 | 329 | 5.0 | 7.0 | 0.00 | 0.00 | 0.00 | 46 | 1013.5 |
| 20260504170812 | 78 | 356 | 5.0 | 7.0 | 0.00 | 0.00 | 0.00 | 47 | 1013.5 |
| 20260504170309 | 78 | 244 | 3.0 | 4.0 | 0.00 | 0.00 | 0.00 | 46 | 1013.6 |
| 20260504160222 | 76 | 233 | 2.0 | 3.0 | 0.00 | 0.00 | 0.00 | 52 | 1014.5 |
| 20260504150647 | 74 | 215 | 2.0 | 2.0 | 0.00 | 0.00 | 0.00 | 56 | 1014.5 |
| 20260504150144 | 73 | 301 | 4.0 | 4.0 | 0.00 | 0.00 | 0.00 | 55 | 1014.6 |
| 20260504141113 | 68 | 235 | 3.0 | 6.0 | 0.00 | 0.00 | 0.00 | 65 | 1014.6 |
| 20260504140610 | 67 | 243 | 1.0 | 2.0 | 0.00 | 0.00 | 0.00 | 64 | 1014.9 |
| 20260504140105 | 68 | 203 | 1.0 | 2.0 | 0.00 | 0.00 | 0.00 | 64 | 1014.9 |
| 20260504130534 | 61 | 224 | 1.0 | 1.0 | 0.00 | 0.00 | 0.00 | 74 | 1014.8 |
| 20260504110421 | 53 | 243 | 0.0 | 0.0 | 0.00 | 0.00 | 0.00 | 83 | 1014.3 |
| 20260504100338 | 54 | 243 | 0.0 | 0.0 | 0.00 | 0.00 | 0.00 | 79 | 1014.3 |
| 20260504081731 | 55 | 243 | 0.0 | 0.0 | 0.00 | 0.00 | 0.00 | 72 | 1014.4 |
| 20260504081228 | 55 | 243 | 1.0 | 1.0 | 0.00 | 0.00 | 0.00 | 72 | 1014.4 |
| 20260504080724 | 55 | 243 | 0.0 | 0.0 | 0.00 | 0.00 | 0.00 | 72 | 1014.5 |
| 20260504080221 | 55 | 243 | 0.0 | 0.0 | 0.00 | 0.00 | 0.00 | 73 | 1014.6 |
| 20260504070148 | 55 | 243 | 1.0 | 1.0 | 0.00 | 0.00 | 0.00 | 70 | 1015.1 |
| 20260504060109 | 55 | 241 | 0.0 | 0.0 | 0.00 | 0.00 | 0.00 | 71 | 1015.6 |
| 20260504050537 | 54 | 222 | 0.0 | 0.0 | 0.00 | 0.00 | 0.00 | 73 | 1015.6 |
| 20260504045531 | 54 | 222 | 0.0 | 0.0 | 0.00 | 0.00 | 0.00 | 74 | 1015.6 |
| 20260504045026 | 54 | 222 | 0.0 | 0.0 | 0.00 | 0.00 | 0.00 | 73 | 1015.6 |
| 20260504044524 | 54 | 222 | 0.0 | 0.0 | 0.00 | 0.00 | 0.00 | 73 | 1015.7 |
| 20260504044021 | 54 | 222 | 0.0 | 0.0 | 0.00 | 0.00 | 0.00 | 73 | 1015.6 |
| 20260504043518 | 54 | 222 | 0.0 | 0.0 | 0.00 | 0.00 | 0.00 | 73 | 1015.7 |
| 20260504043015 | 54 | 222 | 0.0 | 0.0 | 0.00 | 0.00 | 0.00 | 73 | 1015.7 |
| 20260504042512 | 54 | 222 | 0.0 | 0.0 | 0.00 | 0.00 | 0.00 | 73 | 1015.8 |
| 20260504042009 | 54 | 222 | 0.0 | 0.0 | 0.00 | 0.00 | 0.00 | 73 | 1015.8 |
| 20260504041505 | 54 | 222 | 0.0 | 0.0 | 0.00 | 0.00 | 0.00 | 72 | 1015.9 |
| 20260504041001 | 55 | 222 | 0.0 | 0.0 | 0.00 | 0.00 | 0.00 | 70 | 1016.2 |
| 20260504040459 | 55 | 222 | 0.0 | 0.0 | 0.00 | 0.00 | 0.00 | 71 | 1015.9 |
| 20260504035954 | 55 | 222 | 0.0 | 0.0 | 0.00 | 0.00 | 0.00 | 70 | 1016.1 |
| 20260504035452 | 55 | 222 | 0.0 | 0.0 | 0.00 | 0.00 | 0.00 | 70 | 1016.3 |
| 20260504034948 | 55 | 222 | 0.0 | 0.0 | 0.00 | 0.00 | 0.00 | 70 | 1016.2 |
| 20260504034446 | 55 | 222 | 0.0 | 0.0 | 0.00 | 0.00 | 0.00 | 70 | 1016.0 |
| 20260504033943 | 55 | 222 | 0.0 | 0.0 | 0.00 | 0.00 | 0.00 | 69 | 1016.2 |
| 20260504033441 | 55 | 222 | 0.0 | 0.0 | 0.00 | 0.00 | 0.00 | 68 | 1016.1 |
| 20260504032938 | 56 | 222 | 0.0 | 0.0 | 0.00 | 0.00 | 0.00 | 68 | 1016.3 |
| 20260504032434 | 56 | 222 | 0.0 | 0.0 | 0.00 | 0.00 | 0.00 | 67 | 1016.4 |
| 20260504031931 | 56 | 222 | 0.0 | 0.0 | 0.00 | 0.00 | 0.00 | 67 | 1016.4 |
| 20260504031428 | 57 | 222 | 0.0 | 0.0 | 0.00 | 0.00 | 0.00 | 66 | 1016.3 |
| 20260504030925 | 57 | 222 | 0.0 | 0.0 | 0.00 | 0.00 | 0.00 | 65 | 1016.1 |
| 20260504030422 | 57 | 222 | 0.0 | 0.0 | 0.00 | 0.00 | 0.00 | 65 | 1016.2 |
| 20260504025918 | 57 | 222 | 0.0 | 0.0 | 0.00 | 0.00 | 0.00 | 65 | 1016.2 |
| 20260504025415 | 57 | 222 | 0.0 | 0.0 | 0.00 | 0.00 | 0.00 | 64 | 1016.2 |
| 20260504024912 | 57 | 222 | 0.0 | 0.0 | 0.00 | 0.00 | 0.00 | 64 | 1016.3 |
| 20260504024409 | 58 | 222 | 0.0 | 0.0 | 0.00 | 0.00 | 0.00 | 64 | 1016.1 |
| 20260504023906 | 58 | 222 | 0.0 | 0.0 | 0.00 | 0.00 | 0.00 | 64 | 1016.1 |
| 20260504023402 | 58 | 222 | 0.0 | 0.0 | 0.00 | 0.00 | 0.00 | 62 | 1016.1 |
| 20260504022857 | 58 | 222 | 0.0 | 0.0 | 0.00 | 0.00 | 0.00 | 62 | 1016.0 |
| 20260504022355 | 58 | 222 | 0.0 | 0.0 | 0.00 | 0.00 | 0.00 | 62 | 1016.0 |
| 20260504021851 | 58 | 222 | 0.0 | 0.0 | 0.00 | 0.00 | 0.00 | 63 | 1016.2 |
| 20260504021348 | 59 | 222 | 0.0 | 0.0 | 0.00 | 0.00 | 0.00 | 62 | 1016.1 |
| 20260504020845 | 59 | 222 | 0.0 | 0.0 | 0.00 | 0.00 | 0.00 | 62 | 1015.8 |
| 20260504020342 | 59 | 222 | 0.0 | 0.0 | 0.00 | 0.00 | 0.00 | 60 | 1015.8 |
| 20260504015838 | 59 | 222 | 0.0 | 0.0 | 0.00 | 0.00 | 0.00 | 58 | 1015.8 |
| 20260504015334 | 60 | 222 | 0.0 | 0.0 | 0.00 | 0.00 | 0.00 | 57 | 1016.0 |
| 20260504014831 | 60 | 222 | 0.0 | 0.0 | 0.00 | 0.00 | 0.00 | 56 | 1015.9 |
| 20260504014327 | 60 | 222 | 0.0 | 0.0 | 0.00 | 0.00 | 0.00 | 55 | 1015.8 |
| 20260504013825 | 60 | 222 | 0.0 | 0.0 | 0.00 | 0.00 | 0.00 | 54 | 1015.9 |
| 20260504013322 | 60 | 222 | 0.0 | 0.0 | 0.00 | 0.00 | 0.00 | 61 | 1015.9 |
| 20260504012819 | 61 | 222 | 0.0 | 0.0 | 0.00 | 0.00 | 0.00 | 60 | 1015.8 |
| 20260504012317 | 61 | 222 | 0.0 | 0.0 | 0.00 | 0.00 | 0.00 | 58 | 1015.7 |
| 20260504011814 | 61 | 222 | 0.0 | 0.0 | 0.00 | 0.00 | 0.00 | 55 | 1015.8 |
| 20260504011310 | 62 | 222 | 0.0 | 0.0 | 0.00 | 0.00 | 0.00 | 54 | 1015.9 |
| 20260504010806 | 62 | 222 | 0.0 | 0.0 | 0.00 | 0.00 | 0.00 | 55 | 1015.9 |
| 20260504010301 | 63 | 222 | 0.0 | 0.0 | 0.00 | 0.00 | 0.00 | 53 | 1015.6 |
| 20260504005759 | 63 | 222 | 0.0 | 0.0 | 0.00 | 0.00 | 0.00 | 51 | 1015.6 |
| 20260504005256 | 63 | 222 | 0.0 | 0.0 | 0.00 | 0.00 | 0.00 | 54 | 1015.7 |
| 20260504004753 | 64 | 222 | 0.0 | 0.0 | 0.00 | 0.00 | 0.00 | 55 | 1015.6 |
| 20260504004251 | 65 | 222 | 0.0 | 0.0 | 0.00 | 0.00 | 0.00 | 52 | 1015.5 |
| 20260504003747 | 66 | 222 | 0.0 | 0.0 | 0.00 | 0.00 | 0.00 | 50 | 1015.4 |
| 20260504003244 | 67 | 222 | 0.0 | 0.0 | 0.00 | 0.00 | 0.00 | 48 | 1015.6 |
| 20260504002740 | 68 | 222 | 0.0 | 0.0 | 0.00 | 0.00 | 0.00 | 46 | 1015.4 |
| 20260504002237 | 69 | 215 | 0.0 | 0.0 | 0.00 | 0.00 | 0.00 | 45 | 1015.6 |
| 20260504001735 | 70 | 215 | 0.0 | 0.0 | 0.00 | 0.00 | 0.00 | 44 | 1015.6 |
| 20260504001232 | 70 | 215 | 0.0 | 0.0 | 0.00 | 0.00 | 0.00 | 46 | 1015.6 |
| 20260504000728 | 72 | 233 | 0.0 | 1.0 | 0.00 | 0.00 | 0.00 | 41 | 1015.7 |
| 20260504000226 | 73 | 237 | 0.0 | 0.0 | 0.00 | 0.00 | 0.00 | 40 | 1015.5 |
| 20260503235724 | 73 | 235 | 1.0 | 1.0 | 0.00 | 0.00 | 0.00 | 40 | 1015.8 |
| 20260503235221 | 73 | 230 | 0.0 | 1.0 | 0.00 | 0.00 | 0.00 | 37 | 1015.8 |
| 20260503234718 | 73 | 242 | 2.0 | 2.0 | 0.00 | 0.00 | 0.00 | 38 | 1015.8 |
| 20260503234216 | 73 | 246 | 1.0 | 1.0 | 0.00 | 0.00 | 0.00 | 38 | 1015.6 |
| 20260503233713 | 74 | 265 | 2.0 | 3.0 | 0.00 | 0.00 | 0.00 | 37 | 1015.6 |
| 20260503233209 | 75 | 232 | 1.0 | 2.0 | 0.00 | 0.00 | 0.00 | 36 | 1015.8 |
| 20260503232706 | 75 | 241 | 0.0 | 0.0 | 0.00 | 0.00 | 0.00 | 37 | 1015.9 |
| 20260503232203 | 74 | 225 | 0.0 | 1.0 | 0.00 | 0.00 | 0.00 | 38 | 1015.8 |
| 20260503231701 | 74 | 275 | 2.0 | 3.0 | 0.00 | 0.00 | 0.00 | 36 | 1015.9 |
| 20260503231157 | 75 | 242 | 1.0 | 1.0 | 0.00 | 0.00 | 0.00 | 37 | 1016.0 |
| 20260503230654 | 73 | 244 | 1.0 | 2.0 | 0.00 | 0.00 | 0.00 | 37 | 1016.1 |
| 20260503230151 | 73 | 214 | 1.0 | 1.0 | 0.00 | 0.00 | 0.00 | 41 | 1016.1 |
| 20260503225648 | 74 | 268 | 2.0 | 3.0 | 0.00 | 0.00 | 0.00 | 36 | 1016.2 |
| 20260503225148 | 74 | 255 | 2.0 | 2.0 | 0.00 | 0.00 | 0.00 | 37 | 1016.0 |
| 20260503224646 | 74 | 342 | 1.0 | 2.0 | 0.00 | 0.00 | 0.00 | 36 | 1016.2 |
| 20260503224144 | 74 | 233 | 1.0 | 1.0 | 0.00 | 0.00 | 0.00 | 36 | 1016.3 |
| 20260503223641 | 74 | 246 | 2.0 | 3.0 | 0.00 | 0.00 | 0.00 | 36 | 1016.3 |
| 20260503223138 | 74 | 238 | 1.0 | 1.0 | 0.00 | 0.00 | 0.00 | 37 | 1016.4 |
| 20260503222635 | 74 | 247 | 1.0 | 2.0 | 0.00 | 0.00 | 0.00 | 38 | 1016.4 |
| 20260503222132 | 75 | 298 | 2.0 | 3.0 | 0.00 | 0.00 | 0.00 | 35 | 1016.2 |
| 20260503221631 | 75 | 263 | 1.0 | 1.0 | 0.00 | 0.00 | 0.00 | 36 | 1016.5 |
| 20260503221128 | 76 | 235 | 1.0 | 2.0 | 0.00 | 0.00 | 0.00 | 35 | 1016.3 |
| 20260503220624 | 74 | 236 | 1.0 | 1.0 | 0.00 | 0.00 | 0.00 | 36 | 1016.5 |
| 20260503220121 | 75 | 244 | 3.0 | 3.0 | 0.00 | 0.00 | 0.00 | 35 | 1016.7 |
| 20260503215618 | 74 | 231 | 2.0 | 2.0 | 0.00 | 0.00 | 0.00 | 36 | 1016.6 |
| 20260503215115 | 74 | 264 | 4.0 | 4.0 | 0.00 | 0.00 | 0.00 | 35 | 1016.7 |
| 20260503214614 | 74 | 259 | 5.0 | 8.0 | 0.00 | 0.00 | 0.00 | 35 | 1016.9 |
| 20260503214109 | 74 | 269 | 2.0 | 4.0 | 0.00 | 0.00 | 0.00 | 36 | 1016.8 |
| 20260503213608 | 75 | 281 | 3.0 | 4.0 | 0.00 | 0.00 | 0.00 | 35 | 1016.8 |
| 20260503213104 | 75 | 169 | 1.0 | 2.0 | 0.00 | 0.00 | 0.00 | 34 | 1017.2 |
| 20260503212601 | 74 | 189 | 2.0 | 2.0 | 0.00 | 0.00 | 0.00 | 34 | 1017.1 |
| 20260503212059 | 75 | 304 | 2.0 | 3.0 | 0.00 | 0.00 | 0.00 | 34 | 1017.2 |
| 20260503211556 | 76 | 245 | 2.0 | 3.0 | 0.00 | 0.00 | 0.00 | 34 | 1017.3 |
| 20260503211051 | 75 | 300 | 2.0 | 2.0 | 0.00 | 0.00 | 0.00 | 34 | 1017.3 |
| 20260503210548 | 75 | 291 | 1.0 | 2.0 | 0.00 | 0.00 | 0.00 | 34 | 1017.4 |
| 20260503210044 | 74 | 225 | 2.0 | 3.0 | 0.00 | 0.00 | 0.00 | 35 | 1017.5 |
| 20260503205541 | 75 | 199 | 1.0 | 1.0 | 0.00 | 0.00 | 0.00 | 38 | 1017.4 |
| 20260503205037 | 73 | 237 | 0.0 | 1.0 | 0.00 | 0.00 | 0.00 | 37 | 1017.5 |
| 20260503204534 | 74 | 254 | 4.0 | 6.0 | 0.00 | 0.00 | 0.00 | 35 | 1017.8 |
| 20260503204031 | 75 | 302 | 4.0 | 6.0 | 0.00 | 0.00 | 0.00 | 34 | 1017.5 |
| 20260503203529 | 75 | 193 | 0.0 | 1.0 | 0.00 | 0.00 | 0.00 | 32 | 1017.9 |
| 20260503203026 | 74 | 225 | 0.0 | 1.0 | 0.00 | 0.00 | 0.00 | 37 | 1017.9 |
| 20260503202523 | 73 | 250 | 1.0 | 2.0 | 0.00 | 0.00 | 0.00 | 36 | 1018.1 |
| 20260503202021 | 72 | 241 | 2.0 | 3.0 | 0.00 | 0.00 | 0.00 | 36 | 1017.9 |
| 20260503201519 | 72 | 275 | 3.0 | 3.0 | 0.00 | 0.00 | 0.00 | 35 | 1018.1 |
| 20260503201016 | 73 | 269 | 4.0 | 6.0 | 0.00 | 0.00 | 0.00 | 36 | 1018.3 |
| 20260503200512 | 73 | 243 | 4.0 | 7.0 | 0.00 | 0.00 | 0.00 | 36 | 1018.3 |
| 20260503200009 | 73 | 250 | 2.0 | 4.0 | 0.00 | 0.00 | 0.00 | 35 | 1018.5 |
| 20260503195507 | 73 | 256 | 3.0 | 4.0 | 0.00 | 0.00 | 0.00 | 37 | 1018.6 |
| 20260503195003 | 73 | 192 | 1.0 | 2.0 | 0.00 | 0.00 | 0.00 | 41 | 1018.6 |
| 20260503194500 | 73 | 219 | 2.0 | 3.0 | 0.00 | 0.00 | 0.00 | 36 | 1018.9 |
| 20260503193955 | 74 | 279 | 2.0 | 3.0 | 0.00 | 0.00 | 0.00 | 36 | 1018.6 |
| 20260503193451 | 75 | 275 | 1.0 | 2.0 | 0.00 | 0.00 | 0.00 | 39 | 1019.1 |
| 20260503192947 | 72 | 235 | 1.0 | 1.0 | 0.00 | 0.00 | 0.00 | 37 | 1019.0 |